Temperature
11 11 11 11 10 10 10 11 10 10 10 10 10 10 10 10 10 11 10 10 11 11 11 11 11 11 11 11 10 10 10 10 10 10 10 10 10 10 10 10 10 9 9
10 10 10 10 10 10 10 10 10 10 10 10 10 10 10 10 10 10 10 10 10 10 10 10 10 10 10 10 10 10 10 10 10 9 9 9 9 9 9 9 9 9 9
10 10 10 10 10 10 10 10 10 10 10 10 10 10 10 10 10 10 10 10 10 10 10 10 10 10 10 10 10 10 9 9 9 9 9 9 9 9 9 9 9 8 8
9 9 9 9 9 9 9 9 9 9 9 9 9 9 9 9 9 10 10 9 9 9 10 10 10 10 10 10 9 9 9 9 9 9 9 9 9 8 8 8 8 8 8
9 9 9 9 9 9 9 9 9 9 9 9 9 9 9 9 9 9 9 9 9 9 9 9 9 9 9 9 9 9 9 9 9 9 8 8 8 8 7 7 8 7 7
9 9 9 9 9 9 9 9 9 8 8 8 8 8 8 8 8 8 8 8 8 9 9 9 9 9 9 9 9 9 9 8 8 8 8 8 8 8 7 7 7 7 7
8 8 8 8 8 8 8 8 8 8 8 8 8 8 8 8 8 8 8 8 8 8 8 8 8 8 8 8 8 8 8 8 8 8 8 8 7 7 7 6 6 6 6
7 7 8 8 8 8 8 8 8 8 8 8 7 7 7 7 7 8 8 8 8 8 8 8 8 8 8 8 8 8 8 8 7 7 7 7 7 7 6 6 6 5 5
7 7 7 8 8 7 7 7 7 7 7 7 7 7 7 7 7 7 7 7 7 7 7 7 7 7 8 8 7 7 7 7 7 7 7 7 7 6 6 6 5 5 4
6 6 7 7 7 7 7 7 7 7 7 7 7 7 7 7 7 7 7 7 7 7 7 7 7 7 7 7 7 7 7 7 7 7 6 6 6 6 6 5 5 5 4
5 5 6 6 6 6 6 6 6 6 6 6 6 6 6 6 6 6 6 7 6 6 6 6 6 6 6 7 6 6 6 6 6 6 6 6 5 5 5 5 5 4 4
5 5 5 5 6 6 6 6 6 6 6 6 6 6 6 6 6 6 6 6 6 6 6 6 6 6 6 6 6 6 6 6 6 5 5 5 5 5 4 4 4 4 3
4 4 5 5 5 5 6 6 5 5 5 5 5 5 5 5 5 5 6 6 6 6 5 5 5 6 6 5 5 5 5 5 5 5 4 4 4 4 4 4 3 3 3
3 4 4 4 4 5 5 5 5 5 5 5 5 5 5 5 5 5 5 5 5 5 5 5 5 5 5 5 5 5 5 5 5 4 4 4 4 4 3 3 3 3 2
3 3 3 3 4 4 4 4 4 4 4 4 4 4 4 4 4 4 4 4 4 4 4 4 5 5 5 4 4 4 4 4 4 4 4 4 3 3 3 2 2 2 2
2 2 2 3 3 3 4 4 4 4 4 4 4 3 4 4 3 4 4 4 4 4 4 4 4 4 4 4 4 4 4 4 4 4 3 3 3 3 2 2 2 2 1
1 2 2 2 3 3 3 3 3 4 3 3 3 3 3 3 3 3 3 3 3 3 3 3 4 4 4 3 3 3 3 3 3 3 3 3 2 2 2 2 1 1 1
1 1 2 2 2 2 3 3 3 3 3 3 3 3 3 3 3 3 3 3 3 3 3 3 3 3 3 3 3 3 2 2 2 2 2 2 2 1 1 1 1 1 1
1 1 1 1 2 2 2 2 2 2 3 3 2 2 2 2 2 2 2 2 2 2 2 2 2 2 2 2 2 2 2 2 2 2 1 2 1 1 1 1 0 0 0
1 1 1 1 1 2 2 2 2 2 2 2 2 2 2 2 2 2 2 2 2 2 2 2 2 1 2 2 1 1 1 1 1 1 1 1 1 0 0 0 0 -0 -0
1 1 1 1 1 1 1 1 1 2 2 1 1 1 1 1 1 1 1 1 1 1 1 1 1 1 1 1 1 1 1 1 1 0 0 0 0 -0 -0 -0 -0 -1 -1
-0 -0 0 0 0 0 0 1 1 1 1 1 1 1 1 1 1 1 1 1 1 1 1 0 0 0 0 0 0 0 0 0 -0 -0 -0 -0 -1 -1 -0 -1 -1 -1 -1
-1 -1 -1 -0 -0 -0 -0 0 0 0 0 0 0 1 0 0 0 0 0 0 0 0 -0 -0 -0 -0 -0 -0 -0 -0 -0 -1 -1 -1 -1 -1 -1 -1 -1 -1 -1 -1 -1
-1 -1 -1 -1 -1 -1 -1 -1 -1 -1 -0 -0 -0 0 -0 -0 -0 -0 -0 -0 -0 -1 -1 -1 -1 -1 -1 -1 -1 -1 -1 -1 -1 -1 -1 -2 -1 -2 -2 -2 -2 -2 -2
-2 -2 -2 -2 -1 -1 -1 -1 -1 -1 -1 -1 -1 -1 -1 -1 -1 -0 -0 -1 -1 -1 -1 -1 -1 -1 -1 -1 -1 -1 -1 -2 -2 -2 -2 -2 -2 -2 -2 -2 -2 -2 -2
-3 -2 -2 -2 -2 -2 -2 -2 -2 -2 -2 -2 -1 -1 -1 -1 -1 -1 -1 -1 -1 -1 -1 -1 -1 -1 -1 -2 -2 -2 -2 -2 -2 -2 -2 -2 -3 -3 -3 -3 -3 -3 -3
Wind_Speed
9 7 7 6 6 7 8 9 9 8 7 6 6 5 4 4 4 5 7 9 9 10 9 6 7 6 5 5 5 4 3 2 2 1 1 2 1 2 2 2 2 2 2
7 7 6 6 7 8 8 8 9 9 8 7 6 4 4 3 4 5 6 8 9 9 9 8 6 6 5 5 5 4 3 2 2 2 1 0 2 2 2 1 2 1 1
9 8 7 7 7 7 8 8 8 9 8 7 5 4 2 2 2 4 5 6 9 10 9 9 7 7 6 6 6 6 6 4 2 2 3 3 3 2 2 2 2 2 1
7 7 7 7 7 8 7 7 8 7 8 8 8 8 7 6 6 5 5 5 8 9 9 9 8 7 6 7 7 6 5 5 4 2 2 2 2 3 2 2 2 2 2
7 7 7 8 7 6 6 6 7 7 6 7 8 8 7 5 4 4 5 5 5 7 8 9 8 7 6 7 7 6 5 5 4 4 3 2 1 2 3 3 2 2 2
5 5 4 4 5 5 5 5 6 6 6 6 7 8 8 7 6 7 7 5 3 4 6 7 7 6 5 6 6 6 6 5 5 4 4 3 3 3 3 3 3 3 3
5 5 4 4 4 5 6 6 6 7 6 6 7 7 7 8 9 8 8 6 4 3 5 5 5 5 5 6 5 5 6 5 5 5 4 3 3 2 2 3 3 3 2
3 4 5 5 5 5 6 6 7 7 6 6 6 6 6 5 5 7 6 6 5 5 5 5 5 6 6 5 4 4 5 4 5 5 4 3 3 3 3 3 3 2 3
3 3 3 3 4 5 5 6 7 6 6 6 5 5 5 5 5 5 5 5 5 4 6 6 6 5 6 6 5 3 4 4 5 5 4 3 3 2 2 2 3 4 4
2 2 2 2 2 3 3 4 5 6 6 6 5 4 5 5 5 5 6 5 5 5 6 6 6 5 5 5 4 3 4 5 4 4 5 4 3 3 2 2 2 3 4
2 2 1 0 1 1 1 3 4 4 4 5 5 4 4 4 5 5 5 5 5 6 6 6 6 5 5 5 4 4 5 6 5 5 5 5 4 3 2 2 2 2 2
3 3 2 2 1 0 0 1 3 4 4 4 4 4 4 4 5 5 5 5 5 5 6 6 6 5 5 5 5 5 5 6 6 6 5 5 4 4 3 2 3 2 2
3 4 4 3 2 1 0 1 1 2 3 3 3 3 4 5 5 5 4 5 5 5 5 5 5 5 5 5 6 5 5 6 6 6 6 6 5 4 3 3 3 2 2
4 4 5 4 3 3 1 1 1 2 2 2 3 4 4 5 4 4 4 4 5 5 5 5 5 5 5 5 5 5 5 5 5 4 4 5 6 6 5 3 3 3 2
5 4 4 5 4 3 2 1 1 1 2 3 3 3 3 3 3 3 4 4 4 4 4 4 4 4 4 5 5 5 4 5 4 4 3 4 4 5 5 4 3 3 3
4 5 5 5 5 3 2 2 1 1 1 2 3 2 2 3 3 4 4 4 4 4 4 4 5 5 4 5 6 5 4 5 5 4 3 3 3 3 4 5 4 4 4
5 6 6 5 5 4 3 2 2 1 1 1 2 2 2 3 4 4 4 4 4 4 4 3 4 5 5 6 6 6 4 4 4 4 3 2 2 2 2 3 3 4 5
6 7 6 5 5 3 2 2 1 0 1 1 1 1 1 3 3 4 4 3 4 4 4 3 3 3 3 5 6 6 4 3 4 4 4 3 3 2 2 2 2 3 4
6 5 5 4 4 3 2 1 1 0 1 1 1 1 2 2 3 3 3 3 3 3 3 3 3 3 3 4 5 5 3 3 3 2 3 3 3 3 2 1 2 2 3
5 4 4 3 3 3 2 1 1 1 1 2 2 2 2 2 3 3 3 3 3 3 3 3 3 3 3 4 5 5 3 3 2 2 2 2 2 2 2 2 2 3 3
5 4 3 3 3 3 2 1 1 2 3 2 1 1 1 2 2 2 2 3 3 3 3 3 2 3 3 4 5 5 3 4 3 2 2 2 2 2 3 2 2 3 2
4 4 3 4 3 2 2 2 2 3 2 1 1 1 1 1 2 3 2 3 3 4 3 3 2 1 2 3 4 4 3 3 3 3 2 2 2 2 2 2 2 2 2
4 4 3 4 4 3 1 2 4 3 1 1 1 0 1 1 2 3 3 3 3 3 3 3 2 1 1 2 3 3 3 3 2 2 2 2 1 1 1 1 2 1 1
4 4 4 4 4 4 3 3 3 2 1 1 1 0 0 0 1 2 3 3 3 3 3 3 3 2 1 2 2 2 2 2 2 2 2 1 1 2 1 2 2 1 0
4 4 3 4 4 4 4 4 3 2 1 1 1 1 0 0 0 1 1 2 3 3 4 4 4 3 3 3 4 3 3 2 2 3 2 2 1 1 1 1 1 1 1
4 4 4 4 4 4 4 4 3 1 1 1 1 1 0 0 0 1 1 2 0 0 1 1 2 2 3 3 4 3 3 4 5 4 2 1 1 1 0 1 1 1 1
Wind_Direction
243 233 220 207 200 197 192 190 187 187 178 175 176 181 189 192 196 190 190 185 184 184 180 181 176 175 180 185 176 168 166 171 154 108 345 319 275 224 211 184 169 178 187
247 231 217 204 199 198 195 191 189 189 189 186 182 181 179 189 199 187 192 194 189 186 187 182 184 183 179 179 180 169 170 186 171 154 149 292 306 271 237 216 195 197 169
232 224 212 210 200 202 199 197 195 192 192 182 169 161 151 156 193 188 195 199 195 192 190 189 186 187 185 188 191 185 182 192 212 192 171 176 216 246 270 233 210 202 206
232 221 213 210 206 207 202 194 194 193 192 181 179 181 189 195 205 192 192 199 198 197 192 187 188 188 190 192 195 196 193 183 201 215 218 200 169 180 239 270 244 217 214
236 227 215 207 205 200 197 194 189 191 190 187 187 191 199 198 196 185 184 198 203 198 193 187 184 189 193 194 194 195 192 192 199 202 199 193 193 192 203 239 258 259 232
241 231 217 197 194 189 191 189 187 192 190 188 190 195 195 190 190 193 188 191 197 198 194 187 181 183 186 196 198 194 190 196 198 203 198 189 188 195 201 221 237 253 250
240 229 227 211 194 191 194 191 191 195 193 190 192 197 197 191 196 197 190 183 188 199 197 185 182 182 183 190 191 189 191 195 194 203 207 200 204 200 204 212 229 249 271
251 228 224 217 204 194 195 194 196 196 193 192 197 197 193 191 202 198 193 190 193 196 187 181 183 180 177 181 181 189 198 193 195 199 196 195 202 200 200 205 204 239 272
270 246 225 207 205 195 198 199 195 192 190 189 191 191 194 195 203 195 189 192 192 188 180 180 185 183 178 179 178 188 199 191 192 190 192 199 205 200 204 200 196 201 238
290 261 244 217 215 205 196 195 190 189 189 187 190 193 192 196 203 191 189 187 185 184 179 182 183 184 186 182 180 187 198 193 192 187 186 202 207 199 200 200 211 208 215
305 302 313 237 193 210 189 190 188 188 192 190 187 186 195 198 198 192 190 185 181 181 185 184 183 184 188 187 186 194 195 192 193 190 190 202 198 195 194 196 210 220 219
350 352 5 24 37 64 203 179 190 194 200 190 181 185 188 193 192 192 189 182 182 185 189 181 182 187 191 190 194 199 204 194 194 196 195 202 193 193 195 195 211 220 222
4 9 9 3 344 316 266 197 198 202 195 175 179 186 194 190 189 190 186 180 179 181 184 179 185 191 194 195 202 203 203 198 199 198 197 199 187 197 203 202 219 227 233
355 4 359 345 327 311 302 258 249 216 186 168 180 192 203 194 191 187 181 181 177 179 184 185 189 193 198 200 204 199 196 193 194 196 196 196 192 197 200 209 219 225 230
351 351 344 332 325 322 316 283 245 214 179 175 185 197 202 189 180 181 182 178 177 181 182 181 186 190 196 203 200 194 189 184 184 185 188 197 201 209 213 220 219 221 228
330 329 326 322 316 312 308 304 285 244 180 185 196 201 189 183 182 183 181 174 174 175 172 179 185 191 203 203 201 192 185 183 180 187 192 201 203 216 235 238 238 236 230
314 314 310 310 307 304 297 282 266 244 172 188 203 196 190 190 193 189 180 176 171 165 171 182 186 196 203 201 198 191 179 181 183 186 190 205 212 224 233 250 270 274 269
307 305 302 304 307 303 297 283 291 217 184 199 218 205 192 194 188 178 178 178 166 169 177 181 178 181 201 196 192 181 168 171 180 191 194 195 204 217 227 250 269 280 280
296 294 293 295 305 311 300 321 337 300 206 222 236 228 214 199 187 182 185 180 166 170 180 175 175 183 199 192 179 170 161 158 172 182 177 182 201 214 229 229 250 282 296
309 306 315 323 326 321 325 348 302 283 268 260 250 228 217 200 198 192 185 174 167 175 176 177 181 186 196 192 178 162 162 160 168 176 182 198 211 217 229 225 233 261 284
325 330 336 331 321 322 337 324 301 277 273 275 260 236 215 205 188 171 170 167 167 163 166 172 184 189 192 191 186 178 166 167 169 183 202 221 231 255 266 269 245 262 294
342 344 345 334 327 335 357 330 298 288 285 274 252 222 197 195 161 154 161 161 160 159 163 165 171 182 195 190 190 192 183 166 167 186 203 218 235 276 288 289 280 308 346
339 342 344 334 334 337 345 313 302 312 318 330 302 254 190 186 167 163 167 164 162 167 174 177 182 191 196 198 193 192 182 175 169 178 189 194 209 320 344 333 328 347 37
331 336 340 333 329 331 330 309 311 326 337 325 306 312 138 127 152 161 167 173 178 182 183 188 190 191 190 186 182 176 167 159 159 147 145 124 88 65 44 15 357 357 307
324 331 328 323 321 329 333 328 324 338 339 313 299 291 244 176 129 140 177 190 200 198 190 192 184 184 197 211 193 167 173 168 157 119 109 97 76 55 29 13 1 358 348
323 327 325 321 321 329 329 324 319 312 297 300 298 284 252 175 141 110 43 15 63 243 249 176 157 197 200 182 177 175 168 151 143 126 125 136 157 205 267 304 318 326 316
Height
1461 1462 1464 1465 1467 1469 1470 1472 1474 1476 1479 1481 1483 1486 1488 1490 1492 1495 1497 1499 1500 1502 1504 1505 1506 1508 1509 1510 1511 1512 1513 1514 1515 1515 1515 1515 1516 1516 1516 1516 1516 1516 1515
1456 1457 1459 1460 1461 1463 1465 1467 1469 1472 1474 1476 1479 1482 1484 1486 1488 1491 1493 1495 1496 1498 1500 1501 1502 1504 1505 1506 1508 1509 1510 1511 1512 1512 1512 1512 1513 1512 1513 1513 1513 1513 1512
1450 1451 1453 1454 1456 1458 1460 1462 1465 1467 1469 1472 1475 1477 1479 1481 1483 1485 1488 1490 1492 1494 1495 1497 1498 1499 1501 1502 1503 1505 1506 1506 1508 1509 1510 1509 1508 1509 1509 1509 1509 1509 1509
1446 1447 1448 1449 1451 1453 1456 1458 1461 1463 1465 1467 1470 1472 1473 1475 1478 1480 1483 1486 1488 1489 1491 1492 1494 1494 1496 1497 1499 1500 1502 1503 1503 1505 1505 1506 1505 1506 1505 1505 1505 1505 1505
1442 1442 1443 1444 1447 1450 1452 1455 1457 1459 1461 1463 1465 1467 1470 1472 1474 1477 1479 1481 1483 1485 1486 1488 1489 1491 1492 1493 1495 1496 1497 1499 1499 1500 1501 1501 1502 1502 1502 1500 1500 1501 1501
1439 1439 1439 1441 1443 1446 1449 1451 1453 1455 1457 1459 1461 1463 1465 1467 1469 1471 1473 1476 1478 1480 1482 1483 1485 1486 1488 1489 1490 1491 1492 1494 1495 1496 1496 1497 1497 1497 1498 1496 1495 1496 1496
1436 1436 1436 1438 1440 1442 1444 1446 1449 1450 1453 1454 1456 1459 1461 1463 1464 1467 1469 1471 1473 1475 1476 1477 1480 1482 1483 1485 1486 1487 1488 1489 1490 1491 1492 1492 1493 1494 1494 1493 1492 1491 1490
1434 1434 1434 1435 1436 1438 1441 1443 1445 1447 1449 1450 1452 1455 1457 1459 1460 1463 1465 1466 1469 1471 1473 1474 1476 1477 1479 1481 1481 1482 1483 1484 1485 1486 1487 1488 1489 1489 1490 1490 1489 1487 1486
1431 1431 1432 1432 1433 1435 1437 1440 1442 1443 1445 1447 1449 1451 1453 1455 1457 1459 1461 1463 1464 1467 1469 1470 1471 1473 1474 1476 1477 1478 1478 1479 1481 1482 1483 1483 1484 1485 1485 1486 1486 1485 1482
1430 1430 1429 1430 1431 1433 1435 1437 1438 1440 1442 1443 1445 1447 1449 1451 1453 1455 1456 1458 1460 1462 1464 1466 1466 1468 1470 1471 1472 1474 1474 1475 1475 1476 1478 1479 1480 1480 1481 1481 1481 1481 1480
1430 1429 1429 1428 1430 1431 1433 1434 1436 1437 1439 1440 1442 1444 1446 1447 1449 1451 1452 1454 1456 1458 1459 1461 1462 1464 1465 1467 1468 1469 1469 1470 1471 1472 1473 1474 1475 1475 1476 1476 1476 1476 1475
1430 1429 1428 1428 1429 1429 1430 1431 1432 1434 1436 1437 1438 1440 1442 1444 1445 1446 1448 1449 1451 1453 1455 1456 1457 1459 1461 1462 1463 1464 1465 1466 1466 1467 1468 1469 1469 1470 1471 1471 1471 1470 1470
1431 1429 1428 1428 1427 1428 1428 1429 1430 1431 1432 1434 1435 1436 1438 1440 1441 1442 1444 1445 1447 1449 1450 1451 1453 1455 1456 1458 1459 1460 1460 1461 1462 1462 1463 1464 1465 1465 1466 1466 1466 1465 1465
1431 1429 1428 1428 1427 1426 1426 1427 1428 1429 1429 1430 1432 1433 1434 1435 1437 1438 1439 1441 1442 1444 1446 1447 1449 1451 1452 1453 1455 1455 1456 1457 1458 1459 1459 1460 1460 1461 1461 1461 1461 1461 1460
1430 1429 1428 1427 1426 1425 1425 1426 1426 1426 1426 1427 1428 1429 1430 1432 1433 1434 1435 1437 1439 1440 1442 1443 1445 1447 1448 1449 1450 1451 1452 1452 1453 1454 1455 1456 1456 1456 1457 1457 1456 1456 1456
1430 1429 1428 1426 1424 1423 1422 1422 1422 1423 1423 1424 1425 1426 1427 1428 1429 1430 1432 1433 1435 1437 1438 1439 1441 1442 1443 1445 1446 1447 1448 1448 1449 1450 1451 1452 1452 1452 1453 1453 1452 1453 1452
1428 1427 1425 1423 1422 1421 1420 1420 1420 1419 1420 1421 1422 1423 1424 1425 1426 1427 1428 1429 1431 1433 1434 1436 1437 1438 1440 1441 1443 1443 1444 1445 1446 1446 1446 1447 1447 1448 1448 1448 1448 1448 1448
1427 1425 1423 1421 1421 1420 1419 1419 1418 1418 1418 1418 1419 1419 1420 1421 1423 1424 1425 1426 1428 1429 1431 1432 1433 1435 1436 1437 1438 1439 1440 1441 1441 1442 1442 1443 1443 1444 1444 1444 1443 1443 1442
1425 1423 1421 1420 1418 1418 1417 1416 1415 1415 1415 1415 1416 1417 1417 1418 1419 1420 1421 1423 1424 1426 1428 1429 1430 1432 1433 1434 1435 1436 1436 1437 1437 1438 1439 1439 1439 1439 1440 1440 1439 1438 1438
1422 1421 1419 1418 1416 1415 1414 1414 1413 1412 1412 1413 1414 1414 1415 1415 1416 1417 1418 1420 1422 1423 1425 1426 1428 1429 1429 1430 1431 1432 1433 1433 1434 1435 1435 1436 1435 1435 1436 1436 1435 1434 1434
1420 1418 1417 1415 1415 1414 1413 1411 1411 1410 1411 1411 1412 1412 1412 1413 1413 1414 1415 1417 1419 1420 1422 1423 1425 1426 1426 1427 1428 1429 1430 1430 1431 1431 1432 1432 1432 1432 1433 1433 1432 1432 1431
1419 1417 1416 1414 1413 1412 1410 1409 1408 1409 1409 1409 1409 1409 1410 1410 1410 1411 1413 1415 1416 1417 1419 1420 1421 1422 1423 1424 1425 1426 1427 1428 1428 1428 1429 1429 1429 1430 1430 1429 1429 1429 1428
1418 1416 1414 1412 1411 1410 1409 1407 1407 1407 1407 1407 1407 1407 1407 1407 1408 1409 1410 1411 1413 1414 1416 1417 1418 1419 1420 1421 1422 1424 1424 1425 1425 1426 1426 1426 1426 1426 1426 1426 1426 1426 1425
1416 1414 1412 1410 1409 1408 1407 1406 1405 1405 1404 1404 1404 1404 1404 1404 1405 1406 1407 1409 1410 1411 1413 1414 1415 1416 1417 1419 1420 1421 1421 1422 1422 1423 1423 1424 1424 1423 1423 1423 1423 1423 1423
1414 1412 1411 1409 1407 1406 1405 1404 1404 1403 1402 1402 1402 1402 1402 1402 1403 1404 1405 1406 1408 1409 1410 1411 1412 1414 1415 1416 1417 1418 1418 1419 1419 1419 1420 1420 1420 1420 1420 1420 1420 1421 1420
1412 1410 1409 1407 1406 1405 1404 1403 1402 1401 1400 1399 1399 1400 1400 1400 1401 1402 1404 1405 1406 1407 1408 1409 1411 1412 1413 1414 1414 1415 1416 1416 1416 1417 1417 1417 1418 1418 1418 1418 1418 1418 1418